Weather History for K1P1 - February, 2014

Change the Weather History Date:

Saturday, February 22, 2014

  Actual Average (KLCI) Record (KLCI)
Temperature  
Mean Temperature 36 °F -  
Max Temperature 48 °F 39 °F 62 °F (1997)
Min Temperature 25 °F 18 °F -8 °F (1993)
Degree Days  
Heating Degree Days 28    
Moisture  
Dew Point 21 °F    
Average Humidity 58    
Maximum Humidity 99    
Minimum Humidity 24    
Precipitation  
Precipitation 0.00 in - - ()
Sea Level Pressure  
Sea Level Pressure 29.81 in    
Wind  
Wind Speed 4 mph (SW)    
Max Wind Speed 17 mph    
Max Gust Speed 30 mph    
Visibility 7 miles    
Events Fog    
Averages and records for this station are not official NWS values.
T = Trace of Precipitation, MM = Missing Value Source: NWS Daily Summary

Daily Weather History Graph

Daily Weather History Graph

Search for Another Location

Airport or City:

Trip Planner

Search our weather history database for the weather conditions in past years. The results will help you decide how hot, cold, wet, or windy it might be!

Date:

Astronomy

Feb. 22, 2014 Rise Set
Actual Time 6:35 AM EST 5:26 PM EST
Civil Twilight 6:06 AM EST 5:55 PM EST
Nautical Twilight 5:32 AM EST 6:29 PM EST
Astronomical Twilight 4:59 AM EST 7:02 PM EST
Moon 12:31 AM EST (2/22) 10:29 AM EST (2/22)
Length of Visible Light 11h 49m
Length of Day
10h 51m
Waning Gibbous, 50% of the Moon is Illuminated
Feb 22
Waning Gibbous
Feb 22
Last Quarter
Mar 1
New
Mar 8
First Quarter
Mar 16
Full

Hourly Weather History & Observations

Time (EST) Temp. Windchill Dew Point Humidity Pressure Visibility Wind Dir Wind Speed Gust Speed Precip Events Conditions
12:15 AM 30.6 °F - 30.0 °F 98% 29.77 in 1.5 mi Calm Calm - N/A   Mist
12:35 AM 30.0 °F 26.5 °F 29.7 °F 99% 29.78 in 0.8 mi East 3.5 mph - N/A   Mist
12:55 AM 27.9 °F - 27.5 °F 99% 29.79 in 0.5 mi Calm Calm - N/A Fog Light Freezing Fog
1:15 AM 28.4 °F - 28.2 °F 99% 29.79 in 0.2 mi Calm Calm - N/A Fog Light Freezing Fog
1:35 AM 28.4 °F - 28.2 °F 99% 29.80 in 0.2 mi Calm Calm - N/A Fog Light Freezing Fog
1:55 AM 28.8 °F - 28.4 °F 99% 29.79 in 0.2 mi Calm Calm - N/A Fog Light Freezing Fog
2:15 AM 28.0 °F - 27.7 °F 99% 29.80 in 0.5 mi Calm Calm - N/A Fog Light Freezing Fog
2:35 AM 28.2 °F - 28.0 °F 99% 29.81 in 0.2 mi Calm Calm - N/A Fog Light Freezing Fog
2:55 AM 28.0 °F - 27.7 °F 99% 29.81 in 0.5 mi Calm Calm - N/A Fog Light Freezing Fog
3:15 AM 27.7 °F - 27.3 °F 99% 29.82 in 0.2 mi Calm Calm - N/A Fog Light Freezing Fog
3:35 AM 28.2 °F - 27.7 °F 98% 29.82 in 0.2 mi Calm Calm - N/A Fog Light Freezing Fog
3:55 AM 28.6 °F - 28.4 °F 99% 29.82 in 0.2 mi Calm Calm - N/A Fog Light Freezing Fog
4:15 AM 28.4 °F - 28.2 °F 99% 29.82 in 0.2 mi Calm Calm - N/A Fog Light Freezing Fog
4:35 AM 28.2 °F - 27.9 °F 99% 29.83 in 0.2 mi Calm Calm - N/A Fog Light Freezing Fog
4:55 AM 27.7 °F - 27.5 °F 99% 29.83 in 0.2 mi Calm Calm - N/A Fog Light Freezing Fog
5:15 AM 27.7 °F - 27.5 °F 99% 29.83 in 0.2 mi Calm Calm - N/A Fog Light Freezing Fog
5:35 AM 27.5 °F - 27.1 °F 99% 29.83 in 0.2 mi Calm Calm - N/A Fog Light Freezing Fog
5:55 AM 27.0 °F - 26.6 °F 99% 29.84 in 0.5 mi Calm Calm - N/A Fog Light Freezing Fog
6:15 AM 26.4 °F - 26.1 °F 99% 29.84 in 0.2 mi Calm Calm - N/A Fog Light Freezing Fog
6:35 AM 25.7 °F - 25.3 °F 99% 29.84 in 0.2 mi Calm Calm - N/A Fog Light Freezing Fog
6:55 AM 25.2 °F 20.9 °F 24.6 °F 98% 29.85 in 0.5 mi East 3.5 mph - N/A Fog Light Freezing Fog
7:15 AM 25.0 °F 20.7 °F 24.4 °F 98% 29.85 in 10.0 mi ENE 3.5 mph - N/A   Unknown
7:35 AM 26.8 °F - 26.4 °F 99% 29.86 in 10.0 mi Calm Calm - N/A   Unknown
7:55 AM 29.1 °F 25.4 °F 28.8 °F 99% 29.86 in 10.0 mi NE 3.5 mph - N/A   Unknown
8:15 AM 30.2 °F 24.3 °F 30.0 °F 99% 29.86 in 10.0 mi ENE 5.8 mph - N/A   Unknown
8:35 AM 31.3 °F 27.9 °F 30.9 °F 99% 29.85 in 10.0 mi ENE 3.5 mph - N/A   Unknown
8:55 AM 33.8 °F 30.8 °F 31.1 °F 90% 29.85 in 10.0 mi NE 3.5 mph - N/A   Unknown
9:15 AM 36.9 °F 32.2 °F 28.0 °F 70% 29.84 in 10.0 mi ENE 5.8 mph - N/A   Unknown
9:35 AM 38.7 °F 30.9 °F 27.3 °F 64% 29.85 in 10.0 mi WSW 12.7 mph 19.6 mph N/A   Unknown
9:55 AM 41.2 °F 37.3 °F 19.8 °F 42% 29.84 in 10.0 mi SW 5.8 mph 24.2 mph N/A   Unknown
10:15 AM 42.3 °F 37.3 °F 19.8 °F 41% 29.83 in 10.0 mi WSW 8.1 mph 20.7 mph N/A   Unknown
10:35 AM 43.0 °F 36.0 °F 19.8 °F 40% 29.83 in 10.0 mi West 13.8 mph 21.9 mph N/A   Unknown
10:55 AM 44.1 °F 37.1 °F 20.3 °F 39% 29.82 in 10.0 mi West 15.0 mph 19.6 mph N/A   Unknown
11:15 AM 45.1 °F 42.8 °F 21.0 °F 38% 29.80 in 10.0 mi WSW 4.6 mph - N/A   Unknown
11:35 AM 45.9 °F 39.4 °F 20.8 °F 37% 29.80 in 10.0 mi West 15.0 mph 23.0 mph N/A   Unknown
11:55 AM 46.0 °F 39.0 °F 19.9 °F 35% 29.79 in 10.0 mi SW 17.3 mph 27.6 mph N/A   Unknown
12:15 PM 46.4 °F 39.8 °F 20.3 °F 36% 29.79 in 10.0 mi WSW 16.1 mph 27.6 mph N/A   Unknown
12:35 PM 46.9 °F - 19.4 °F 34% 29.79 in 10.0 mi WSW 15.0 mph 25.3 mph N/A   Unknown
12:55 PM 46.8 °F - 18.7 °F 33% 29.78 in 10.0 mi WSW 13.8 mph 26.5 mph N/A   Unknown
1:15 PM 47.3 °F - 19.8 °F 34% 29.78 in 10.0 mi WSW 8.1 mph 20.7 mph N/A   Unknown
1:35 PM 47.3 °F - 20.5 °F 35% 29.77 in 10.0 mi SSW 13.8 mph 18.4 mph N/A   Unknown
1:55 PM 48.0 °F - 20.8 °F 34% 29.76 in 10.0 mi SW 5.8 mph - N/A   Unknown
2:15 PM 46.4 °F 41.9 °F 21.4 °F 37% 29.76 in 10.0 mi SW 9.2 mph 24.2 mph N/A   Unknown
2:35 PM 46.4 °F 43.5 °F 21.9 °F 38% 29.76 in 10.0 mi WSW 5.8 mph 17.3 mph N/A   Unknown
2:55 PM 46.4 °F 41.5 °F 22.3 °F 39% 29.76 in 10.0 mi WSW 10.4 mph 16.1 mph N/A   Unknown
3:15 PM 45.9 °F 41.2 °F 21.9 °F 39% 29.76 in 10.0 mi WSW 9.2 mph 20.7 mph N/A   Unknown
3:35 PM 47.1 °F - 20.8 °F 35% 29.76 in 10.0 mi WSW 13.8 mph 21.9 mph N/A   Unknown
3:55 PM 46.6 °F - 20.5 °F 36% 29.75 in 10.0 mi SSW 10.4 mph 18.4 mph N/A   Unknown
4:15 PM 46.4 °F 40.7 °F 20.5 °F 36% 29.76 in 10.0 mi WSW 12.7 mph 18.4 mph N/A   Unknown
4:35 PM 46.4 °F 44.3 °F 20.5 °F 36% 29.76 in 10.0 mi SW 4.6 mph 16.1 mph N/A   Unknown
4:55 PM 46.9 °F - 19.4 °F 34% 29.76 in 10.0 mi SW 11.5 mph 21.9 mph N/A   Unknown
5:15 PM 46.2 °F 41.2 °F 19.0 °F 34% 29.76 in 10.0 mi SW 10.4 mph 17.3 mph N/A   Unknown
5:35 PM 46.2 °F 41.7 °F 18.3 °F 33% 29.77 in 10.0 mi SW 9.2 mph 29.9 mph N/A   Unknown
5:55 PM 45.9 °F 42.9 °F 18.3 °F 33% 29.77 in 10.0 mi WSW 5.8 mph 18.4 mph N/A   Unknown
6:15 PM 45.3 °F 40.1 °F 19.2 °F 35% 29.78 in 10.0 mi WSW 10.4 mph 19.6 mph N/A   Unknown
6:35 PM 45.5 °F 40.8 °F 17.8 °F 33% 29.79 in 10.0 mi SW 9.2 mph 20.7 mph N/A   Unknown
6:55 PM 45.0 °F 40.1 °F 17.2 °F 33% 29.79 in 10.0 mi SW 9.2 mph 23.0 mph N/A   Unknown
7:15 PM 44.6 °F 37.8 °F 16.9 °F 33% 29.80 in 10.0 mi WSW 15.0 mph 19.6 mph N/A   Unknown
7:35 PM 44.8 °F 38.7 °F 14.5 °F 30% 29.80 in 10.0 mi WSW 12.7 mph 24.2 mph N/A   Unknown
7:55 PM 44.6 °F 38.8 °F 10.9 °F 26% 29.81 in 10.0 mi WSW 11.5 mph 21.9 mph N/A   Unknown
8:15 PM 43.7 °F 41.1 °F 10.6 °F 26% 29.81 in 10.0 mi WSW 4.6 mph - N/A   Unknown
8:35 PM 43.7 °F 38.6 °F 8.8 °F 24% 29.82 in 10.0 mi WSW 9.2 mph - N/A   Unknown
8:55 PM 43.7 °F 37.7 °F 8.6 °F 24% 29.82 in 10.0 mi WSW 11.5 mph 21.9 mph N/A   Unknown
9:15 PM 43.9 °F 39.3 °F 9.1 °F 24% 29.82 in 10.0 mi SW 8.1 mph 21.9 mph N/A   Unknown
9:35 PM 43.7 °F 36.9 °F 9.3 °F 25% 29.83 in 10.0 mi WSW 13.8 mph 20.7 mph N/A   Unknown
9:55 PM 43.7 °F 38.6 °F 9.1 °F 24% 29.83 in 10.0 mi WSW 9.2 mph 19.6 mph N/A   Unknown
10:15 PM 43.2 °F 37.9 °F 9.5 °F 25% 29.84 in 10.0 mi WSW 9.2 mph 16.1 mph N/A   Unknown
10:35 PM 42.8 °F 38.6 °F 10.0 °F 26% 29.84 in 10.0 mi SW 6.9 mph 16.1 mph N/A   Unknown
10:55 PM 41.9 °F 36.9 °F 10.8 °F 28% 29.84 in 10.0 mi WSW 8.1 mph - N/A   Unknown
11:15 PM 41.4 °F 37.6 °F 11.1 °F 29% 29.85 in 10.0 mi WSW 5.8 mph - N/A   Unknown
11:35 PM 41.2 °F 36.6 °F 11.7 °F 30% 29.86 in 10.0 mi WSW 6.9 mph - N/A   Unknown
11:55 PM 41.2 °F 37.3 °F 11.3 °F 30% 29.87 in 10.0 mi WSW 5.8 mph 16.1 mph N/A   Unknown